Regional Weather Roundup
Issued by NWS

Current Version | Previous Version | Text Only | Print | Product List | Glossary Off
Versions: 1 2 3 4 5 6 7 8 9 10 11 12 13 14 15 16 17 18 19 20 21 22 23 24 25 26 27 28 29 30 31 32 33 34 35 36 37 38 39 40 41 42 43 44 45 46 47 48 49 50

000
ASUS43 KLMK 221810
RWRKY
KENTUCKY REGIONAL WEATHER ROUNDUP
NATIONAL WEATHER SERVICE LOUISVILLE KY
200 PM EDT SUN OCT 22 2017

NOTE "FAIR" INDICATES FEW OR NO CLOUDS BELOW 12,000 FEET
WITH NO SIGNIFICANT WEATHER AND/OR OBSTRUCTIONS TO VISIBILITY.

KYZ001>023-026-027-061>063-070>075-221900-
WESTERN AND SOUTH CENTRAL KENTUCKY

CITY           SKY/WX    TMP DP  RH WIND       PRES   REMARKS
PADUCAH        CLOUDY    77  60  55 S15G24    29.99F
HENDERSON      MOSUNNY   77  60  55 S16G26    30.04F
OWENSBORO      PTSUNNY   75  60  59 S18G30    30.06F
HOPKINSVILLE   CLOUDY    75  59  57 S13       30.07F
BOWLING GREEN  PTSUNNY   78  59  51 S17       30.11F
GLASGOW        PTSUNNY   76  56  50 S13G18    30.13F
$$

KYZ024-025-028>034-038-045-046-053-221900-
NORTH CENTRAL KENTUCKY

CITY           SKY/WX    TMP DP  RH WIND       PRES   REMARKS
LOUISVILLE/SDF PTSUNNY   77  56  48 S16G24    30.10F
LOUISVILLE/LOU MOSUNNY   75  57  53 S16G23    30.11F
FORT KNOX      MOSUNNY   75  56  50 SE20G25   30.10F
$$

KYZ035>037-039>044-047>052-055>060-089>105-221900-
NORTHEAST KENTUCKY

CITY           SKY/WX    TMP DP  RH WIND       PRES   REMARKS
LEXINGTON      PTSUNNY   73  51  46 S14       30.17F
COVINGTON      PTSUNNY   75  57  53 S13       30.14F
FRANKFORT      CLOUDY    75  52  44 S13G22    30.14F
$$

KYZ054-064>069-076>088-106>120-221900-
SOUTHEAST KENTUCKY

CITY           SKY/WX    TMP DP  RH WIND       PRES   REMARKS
JACKSON        CLOUDY    73  49  42 CALM      30.21F
LONDON         SUNNY     74  49  41 S13G25    30.19F
SOMERSET       PTSUNNY   73  52  46 SE7       30.18F
MIDDLESBORO    SUNNY     75  50  41 S6        30.21F
MONTICELLO     PTCLDY    76  58  53 SE13G21   30.18F
$$




USA.gov is the U.S. government's official web portal to all federal, state and local government web resources and services.